Regional Weather Roundup
Issued by NWS

Home | Current Version | Previous Version | Text Only | Print | Product List | Glossary On
Versions: 1 2 3 4 5 6 7 8 9 10 11 12 13 14 15 16 17 18 19 20 21 22 23 24 25 26 27 28 29 30 31 32 33 34 35 36 37 38 39 40 41 42 43 44 45 46 47 48 49 50
000
ASUS43 KOAX 290610
RWRNE

WEATHER ROUNDUP FOR NEBRASKA
NATIONAL WEATHER SERVICE OMAHA NE
1200 AM CST MON DEC 29 2014

NOTES: SATELLITE DATA IS BEING USED TO AUGMENT CLOUD COVER ABOVE
       12000 FEET.
       "FAIR" INDICATES FEW OR NO CLOUDS BELOW 12,000 FEET WITH NO
       SIGNIFICANT WEATHER AND/OR OBSTRUCTIONS TO VISIBILITY.

  * THESE STATIONS DO NOT REPORT WEATHER SUCH AS RAIN...SNOW OR FOG.

NEZ001>004-019>022-054>056-290700-
NEBRASKA PANHANDLE

CITY           SKY/WX    TMP DP  RH WIND       PRES   REMARKS
SCOTTSBLUFF    MOCLDY    12   9  87 N7        30.00R WCI   1
6HR MIN TEMP:  12; 6HR MAX TEMP:  20;

ALLIANCE       LGT SNOW  21  20  96 NE7       30.00S FOG     WCI  12
6HR MIN TEMP:  15; 6HR MAX TEMP:  21; 6HR PCP: TRACE;

CHADRON        LGT SNOW  16  12  84 NE12      30.11R FOG     WCI   3
6HR MIN TEMP:  16; 6HR MAX TEMP:  24; 6HR PCP: TRACE;

KIMBALL        LGT SNOW  24  21  89 NW6       29.94S WCI  17
SIDNEY         CLOUDY    14   8  77 NW6       29.97R WCI   5
6HR MIN TEMP:   9; 6HR MAX TEMP:  18;

$$

NEZ057>060-069>072-079>082-290700-
SOUTHWEST NEBRASKA

CITY           SKY/WX    TMP DP  RH WIND       PRES   REMARKS
NORTH PLATTE   CLOUDY    19  15  84 E3        30.08R
6HR MIN TEMP:  14; 6HR MAX TEMP:  23;

IMPERIAL       CLEAR      6   2  83 N3        30.05R
6HR MIN TEMP:   6; 6HR MAX TEMP:  19;

LEXINGTON      PTCLDY    17  15  89 E5        30.11R WCI  10
MCCOOK         MOCLDY    15  12  88 NE5       30.07R WCI   8
6HR MIN TEMP:  14; 6HR MAX TEMP:  24;

OGALLALA       MOCLDY     6   4  92 CALM      30.04R
$$

NEZ005>010-023>029-035>040-094-290700-
NORTH CENTRAL NEBRASKA

CITY           SKY/WX    TMP DP  RH WIND       PRES   REMARKS
VALENTINE      LGT SNOW  17  14  88 NE14      30.17R VSB 1   WCI   3
6HR MIN TEMP:  17; 6HR MAX TEMP:  23; 6HR PCP:  0.07;

AINSWORTH      LGT SNOW  16  13  90 NE10      30.16R WCI   3
BROKEN BOW     CLOUDY    20  15  81 NE5       30.12R WCI  13
6HR MIN TEMP:  19; 6HR MAX TEMP:  24;

O`NEILL        LGT SNOW  18  17  95 NE9       30.22R WCI   6
ORD            CLOUDY    18  13  80 NE8       30.17R WCI   8
6HR MIN TEMP:  17; 6HR MAX TEMP:  23;

THEDFORD       CLOUDY    20  17  87 E9        30.10R WCI   9
$$

NEZ041-046>049-061>064-073>077-083>087-290700-
SOUTH CENTRAL NEBRASKA

CITY           SKY/WX    TMP DP  RH WIND       PRES   REMARKS
GRAND ISLAND   CLOUDY    19  16  88 NE8       30.18R WCI   9
6HR MIN TEMP:  18; 6HR MAX TEMP:  23;

AURORA         CLOUDY    21  18  90 NE8       30.17R WCI  11
HASTINGS       CLOUDY    22  17  81 NE10      30.13R WCI  11
6HR MIN TEMP:  21; 6HR MAX TEMP:  27;

HEBRON         CLOUDY    28  24  83 NE3       30.15S
HOLDREGE       CLEAR     17  14  89 NE8       30.10R WCI   6
KEARNEY *      CLOUDY    19  16  86 NE10      30.13S WCI   8
YORK           CLOUDY    21  19  93 NE10      30.18R WCI  10
$$

NEZ011>018-030>034-042>045-290700-
NORTHEAST NEBRASKA

CITY           SKY/WX    TMP DP  RH WIND       PRES   REMARKS
NORFOLK        CLOUDY    19  16  88 NE5       30.22R WCI  12
6HR MIN TEMP:  19; 6HR MAX TEMP:  22;

ALBION         PTCLDY    18  13  83 N3        30.20R
BLAIR          PTCLDY    23  20  89 N10       30.20R WCI  12
COLUMBUS *     MOCLDY    18   9  68 NE5       30.22R WCI  11
FREMONT        MOCLDY    21  18  86 N3        30.23R
TEKAMAH        CLOUDY    21  17  84 N9        30.25R WCI  11
6HR MIN TEMP:  21; 6HR MAX TEMP:  24;

WAYNE          LGT SNOW  21  18  91 NE8       30.25R WCI  11
$$

NEZ050>053-065>068-078-088>093-290700-
SOUTHEAST NEBRASKA

CITY           SKY/WX    TMP DP  RH WIND       PRES   REMARKS
LINCOLN        MOCLDY    23  19  85 N7        30.22R WCI  15
6HR MIN TEMP:  23; 6HR MAX TEMP:  31;

OMAHA EPPLEY   MOCLDY    24  22  91 N8        30.23R WCI  15
6HR MIN TEMP:  23; 6HR MAX TEMP:  28;

BEATRICE       CLOUDY    30  25  83 NE7       30.17R WCI  23
FALLS CITY     CLOUDY    30  23  75 SE3       30.18R
6HR MIN TEMP:  30; 6HR MAX TEMP:  38;

NEBRASKA CITY  PTCLDY    28  24  84 N6        30.18R WCI  22
PLATTSMOUTH    PTCLDY    26  23  87 CALM      30.19R
$$

NEZ044-045-051>053-067-290700-
OMAHA AREA

CITY           SKY/WX    TMP DP  RH WIND       PRES   REMARKS
OMAHA EPPLEY   MOCLDY    24  22  91 N8        30.23R WCI  15
6HR MIN TEMP:  23; 6HR MAX TEMP:  28;

BLAIR          PTCLDY    23  20  89 N10       30.20R WCI  12
FREMONT        MOCLDY    21  18  86 N3        30.23R
MILLARD        MOCLDY    26  22  84 CALM      30.21S
OFFUTT AFB     MOCLDY    27  23  85 N8        30.21R WCI  18
PLATTSMOUTH    PTCLDY    26  23  87 CALM      30.19R
WAHOO          FAIR      22  18  85 N8        30.22R WCI  12
$$


USA.gov is the U.S. government's official web portal to all federal, state and local government web resources and services.